Location: Newark
(30.1000°N, 109.4667°E)
Time: 12:45:31
(UTC+00:00)

Transit 4A - Visible Passes

Search period start: 28 February 2020 00:00
Search period end: 09 March 2020 00:00
Orbit: 872 x 973 km, 66.8° (Epoch: 27 February)

Date Brightness Start Highest point End Pass type
(mag) Time Alt. Az. Time Alt. Az. Time Alt. Az.
03 Mar 10.4 22:24:45 10° NNE 22:28:12 16° NE 22:31:41 10° E visible
04 Mar 10.1 22:33:06 10° N 22:37:48 24° ENE 22:42:33 10° ESE visible
06 Mar 9.8 11:58:34 10° SE 11:58:51 11° SE 11:58:51 11° SE visible
07 Mar 8.8 12:06:30 10° SSE 12:10:11 26° SE 12:10:11 26° SE visible
07 Mar 10.1 13:52:26 10° WSW 13:53:52 17° WSW 13:53:52 17° WSW visible
07 Mar 10.7 21:16:59 10° NNE 21:19:00 12° NE 21:21:01 10° ENE visible
08 Mar 8.0 12:15:03 10° S 12:20:42 47° ESE 12:21:57 41° ENE visible
08 Mar 10.1 14:02:49 10° WSW 14:05:40 19° WNW 14:05:40 19° WNW visible
08 Mar 10.4 21:24:39 10° NNE 21:28:39 18° NE 21:32:41 10° E visible
